Location: Bekköy
(37.2403°N, 29.6936°E)
Time: 03:14:15
(UTC+00:00)

Daily predictions for brighter satellites

Satellite Brightness Start Highest point End
(mag) Time Altitude Azimuth Time Altitude Azimuth Time Altitude Azimuth
ACS3 Solar Sail 3.6 00:00:14 10° NNW 00:03:13 15° WNW 00:04:47 13° W
Cosmos 921 Rocket 3.1 00:04:35 59° WNW 00:04:35 59° WNW 00:08:42 10° N
COSMOS 2455 3.9 00:04:46 27° W 00:06:51 34° NW 00:12:15 10° N
IDEFIX/ARIANE 42P 2.9 00:10:20 10° N 00:15:22 49° WNW 00:16:31 42° WSW
NOSS 3-1 (A) 4.3 00:14:35 22° WNW 00:16:15 26° NW 00:20:44 10° NNE
Cosmos 540 Rocket 4.2 00:12:41 10° N 00:17:38 51° ENE 00:22:30 10° SE
Cosmos 1674 Rocket 3.9 00:16:41 42° SSE 00:17:54 61° E 00:22:17 10° NNE
Meteor 1-11 4.1 00:18:08 45° SSW 00:19:53 77° W 00:25:32 10° N
Cosmos 1697 Rocket 4.4 00:17:25 14° SSE 00:20:57 25° ESE 00:25:27 10° NE
ADEOS II 3.7 00:18:36 10° NE 00:23:02 28° E 00:26:58 12° SSE
USA 234 4.2 00:19:46 10° ENE 00:25:40 35° SE 00:28:56 22° S
SL-19 R/B 3.8 00:27:01 79° NW 00:27:01 79° NW 00:30:10 10° NNW
Cosmos 1656 3.6 00:29:37 41° SW 00:31:35 77° WNW 00:37:06 10° NNE
Resurs 1-4 Rocket 2.6 00:27:56 10° NNE 00:33:05 55° E 00:36:11 24° S
Cosmos 2251 Rocket 3.9 00:30:37 30° S 00:33:11 61° ESE 00:38:28 10° NNE
Okean 1 Rocket 4.2 00:33:18 10° N 00:37:25 41° E 00:41:25 10° SSE
Cosmos 1605 Rocket 4.0 00:31:52 10° N 00:38:10 85° E 00:43:05 17° S
H-2A R/B 2.7 00:34:05 10° NNE 00:39:11 50° E 00:42:35 19° SSE
Meteor 2-21 4.5 00:35:33 26° S 00:39:18 84° E 00:45:32 10° N
Cosmos 1346 Rocket 4.3 00:40:44 20° WNW 00:40:44 20° WNW 00:43:17 10° NNW
Cosmos 1809 Rocket 4.5 00:39:20 31° SSW 00:42:20 66° W 00:48:30 10° N
Cosmos 371 Rocket 4.2 00:44:35 28° WSW 00:46:03 35° WNW 00:50:28 10° N
Cosmos 1763 Rocket 3.3 00:44:11 10° NNW 00:49:12 69° WSW 00:52:45 19° S
Cosmos 1535 Rocket 4.5 00:48:07 10° NNW 00:54:20 67° W 00:58:54 19° S
Cosmos 2297 Rocket 3.3 00:49:58 10° N 00:55:24 46° ENE 01:00:48 10° SE
Lacrosse 4 Rocket 3.2 00:54:55 10° WNW 00:56:30 16° W 00:56:30 16° W
Cosmos 676 Rocket 4.4 00:55:04 19° S 00:58:44 60° ESE 01:03:51 10° NNE
Cosmos 1025 Rocket 3.4 00:57:58 32° SW 00:59:31 47° W 01:03:44 10° N
MOZ.5/SAFIR/RUBIN 5/SL-8 3.7 00:57:18 24° S 00:59:59 60° WSW 01:04:33 10° NNW
BREEZE-M DEB (TANK) 2.8 00:52:20 10° NW 01:00:37 71° NNE 01:03:17 10° ESE
ADEOS Rocket 4.3 00:58:09 10° NNW 01:02:54 24° WNW 01:05:49 16° WSW
ATLAS 3B R/B 3.5 00:58:05 16° S 01:04:05 54° ESE 01:11:41 10° NE
CZ-2D R/B 2.1 01:00:10 10° NNE 01:05:38 82° WNW 01:09:30 20° SSW
Cosmos 1980 Rocket 4.0 01:01:13 10° SSE 01:05:49 26° ESE 01:10:27 10° NE
DMSP B5D2-2 4.2 01:04:31 16° S 01:08:34 57° W 01:13:45 10° NNW
NOSS 2-2 (C) 3.8 01:06:23 10° NNW 01:10:35 89° ENE 01:16:29 10° SSE
ALOS 2.4 01:13:42 10° N 01:18:08 55° WNW 01:21:08 20° SW
ARGOS 3.8 01:14:32 10° NNE 01:19:49 55° E 01:25:04 10° S
Spot 2 4.5 01:15:37 10° SSE 01:19:52 63° ENE 01:23:57 10° N
Cosmos 468 Rocket 3.8 01:14:57 10° NNW 01:20:03 76° WSW 01:25:08 10° S
Cosmos 1153 Rocket 4.4 01:18:00 10° N 01:24:11 74° W 01:30:16 10° S
Cosmos 2123 Rocket 4.5 01:18:01 10° S 01:24:13 63° E 01:30:27 10° NNE
Cosmos 2292 Rocket 3.3 01:26:07 25° SW 01:27:17 36° W 01:30:12 10° N
Cosmos 1455 Rocket 3.0 01:26:21 10° N 01:30:40 85° E 01:35:00 10° S
Cosmos 1727 Rocket 4.1 01:27:52 13° SSW 01:33:28 59° W 01:39:35 10° N
SeaSat 1 2.4 01:29:05 10° SSE 01:33:58 76° WSW 01:38:52 10° NNW
Cosmos 2084 Rocket 3.9 01:32:00 18° WSW 01:34:42 45° NW 01:38:36 10° NNE
Envisat 4.1 01:30:34 10° N 01:34:50 28° WNW 01:38:16 14° WSW
CENTAUR R/B 3.9 01:26:14 10° NNW 01:34:50 66° NE 01:44:20 10° SE
USA 229 DEB 3.5 01:30:52 16° SW 01:35:36 69° NW 01:42:04 10° NNE
USA 229 3.5 01:30:52 16° SW 01:35:38 70° NW 01:42:07 10° NNE
Okean 2 Rocket 3.8 01:33:41 10° NNW 01:37:35 32° W 01:41:00 12° SSW
SJ 16-02 3.5 01:40:57 10° WNW 01:42:04 11° WNW 01:43:12 10° NW
Gbstr 26 Del rocket 4.4 01:37:29 14° WSW 01:43:36 74° NW 01:51:25 10° NE
SL-16 R/B 3.4 01:39:26 10° SSE 01:45:26 56° ENE 01:51:27 10° N
Cosmos 968 Rocket 3.5 01:41:28 10° SSW 01:46:40 79° WNW 01:51:56 10° NNE
Cosmos 292 Rocket 3.9 01:43:43 11° SSW 01:48:12 62° WNW 01:52:55 10° N
Cosmos 1459 Rocket 4.0 01:44:16 10° N 01:50:29 82° W 01:56:45 10° S
Cosmos 2173 Rocket 4.0 01:45:08 10° N 01:51:26 75° W 01:57:36 10° S
Cosmos 1862 3.4 01:50:48 10° SSW 01:54:11 43° W 01:57:35 10° N
METEOR-M 4.5 01:49:43 10° N 01:54:52 51° WNW 02:00:00 10° SSW
Cosmos 841 Rocket 3.4 01:50:18 10° NNW 01:55:30 76° WSW 02:00:38 10° S
NOSS 2-2 (E) 4.1 01:52:10 10° NNW 01:56:17 73° ENE 02:02:04 10° SE
Cosmos 2100 Rocket 4.1 01:53:35 10° NNW 01:59:45 61° W 02:05:48 10° S
Delta 2 Rocket 3.1 01:59:06 11° SW 02:01:32 35° SSE 02:04:05 10° E
ADEOS II 3.0 01:57:54 10° N 02:02:30 32° WNW 02:07:06 10° SW
Cosmos 2016 Rocket 4.2 01:56:41 10° N 02:02:55 78° E 02:09:12 10° S
SL-08 RB Rocket 3.7 01:58:55 10° NNE 02:03:30 89° ESE 02:08:00 10° SSW
Cosmos 1697 Rocket 3.4 01:59:22 10° SW 02:04:37 40° WNW 02:09:53 10° N
USA 234 3.6 02:02:24 10° NE 02:08:48 60° NW 02:15:12 10° WSW
Cosmos 2227 Rocket 2.5 02:03:30 10° NNW 02:09:10 75° ENE 02:14:47 10° SSE
Cosmos 1725 Rocket 4.0 02:04:50 10° N 02:11:05 82° W 02:17:20 10° S
